Regional Weather Roundup
Issued by NWS

Home | Current Version | Previous Version | Graphics & Text | Print | Product List | Glossary On
Versions: 1 2 3 4 5 6 7 8 9 10 11 12 13 14 15 16 17 18 19 20 21 22 23 24 25 26 27 28 29 30 31 32 33 34 35 36 37 38 39 40 41 42 43 44 45 46 47 48 49 50
000
ASUS43 KFSD 082002
RWRSD

WEATHER ROUNDUP FOR SOUTH DAKOTA
NATIONAL WEATHER SERVICE SIOUX FALLS SD
200 PM CST THU DEC 08 2016

NOTE: "FAIR" INDICATES FEW OR NO CLOUDS BELOW 12,000 FEET WITH NO
SIGNIFICANT WEATHER AND/OR OBSTRUCTIONS TO VISIBILITY.


SDZ001>005-009-010-012>017-082100-
NORTHWEST AND NORTH CENTRAL SOUTH DAKOTA

CITY           SKY/WX    TMP DP  RH WIND       PRES   REMARKS
BUFFALO          N/A      6  -4  63 NW13      30.43F WCI -10
FAITH            N/A      2  -4  76 NW13      30.56F WCI -15
MOBRIDGE       SUNNY      5  -5  63 NW15      30.60F WCI -13
$$

SDZ012>016-024>037-041>051-057-063-072>074-082100-
SOUTHWEST AND SOUTH CENTRAL SOUTH DAKOTA

CITY           SKY/WX    TMP DP  RH WIND       PRES   REMARKS
RAPID CTY ARPT SUNNY     13  -4  46 NW3       30.51F
PIERRE         CLOUDY     8   1  73 NW13      30.63F WCI  -8
CUSTER         SUNNY     11  -7  44 SE8       30.25F WCI  -1
ELLSWORTH AFB  SUNNY     12  -4  47 N5        30.49F WCI   5
PINE RIDGE     SUNNY     10  -1  61 CALM      30.51F
SPEARFISH      FAIR       9  -4  56 NW3       30.43F
WINNER         FAIR      15   0  51 NW14G24   30.61F WCI   0
$$

SDZ004>011-016>023-039-040-082100-
NORTHEAST SOUTH DAKOTA

CITY           SKY/WX    TMP DP  RH WIND       PRES   REMARKS
ABERDEEN       MOSUNNY   15   4  61 NW18      30.59S WCI  -2
WATERTOWN      CLOUDY    13   6  74 NW20      30.49F WCI  -5
SISSETON         N/A     15   7  70 N22G29    30.53S WCI  -3
$$

SDZ017-020-022-023-036>040-048>070-082100-
SOUTHEAST SOUTH DAKOTA

CITY           SKY/WX    TMP DP  RH WIND       PRES   REMARKS
SIOUX FALLS    NOT AVBL
HURON          NOT AVBL
MITCHELL       SUNNY     19   5  54 NW17G23   30.62S WCI   4
YANKTON        SUNNY     21   5  49 W21G26    30.59F WCI   6
$$

ABBREVIATIONS USED IN REMARKS
   TC - TEMPERATURE IN CELSIUS
  WCI - WIND CHILL INDEX
   HX - HEAT INDEX
  VSB - VISIBILITY





USA.gov is the U.S. government's official web portal to all federal, state and local government web resources and services.